Tracking 28514 objects as of 23-Feb-2024
HD Live streaming from Space Station
objects crossing your sky now

RADUGA 1-7

Track RADUGA 1-7 now!
RADUGA 1-7 is classified as:


NORAD ID: 28194
Int'l Code: 2004-010A
Perigee: 35,771.1 km
Apogee: 35,798.9 km
Inclination: 12.7 °
Period: 1,435.6 minutes
Semi major axis: 42155 km
RCS: 12.5893 m2 (large)
Launch date: March 27, 2004
Source: Commonwealth of Independent States (former USSR) (CIS)
Launch site: TYURATAM MISSILE AND SPACE COMPLEX (TTMTR)

Military communication.
Your satellite tracking list
Your tracking list is empty




NASA's NSSDC Master Catalog

Two Line Element Set (TLE):
1 28194U 04010A   24052.11747924  .00000097  00000-0  00000-0 0  9993
2 28194  12.6868  27.2522 0003299 216.3785 329.6685  1.00303086 72922
Source of the keplerian elements: AFSPC